RH
90 75 67 76 87 88 85 86 93 97 96 96 98 100 102 104 104 103 103 102 102 103 104 104 105 105 105 106 103 98 95 95 96 89 82 77 70 65 63 64 67 71 79 88 90 87 85 83 81 80 80 78 74 70 68 68 70 77 88 97 99 95 89 82 76 71 65 61 60 61 63 64 63 62 60 57 54 49 45 41 38 38 38 35 34 34
93 86 81 82 85 86 81 75 76 79 83 87 88 88 92 98 102 103 103 102 102 102 101 103 104 104 105 106 105 103 101 102 103 97 88 77 69 69 74 74 70 65 67 75 81 82 82 82 78 74 71 70 70 70 69 71 77 83 88 91 93 95 97 98 97 93 86 79 72 67 67 68 68 68 67 65 63 60 57 53 49 46 42 38 36 34
94 94 96 95 96 96 93 87 81 76 75 78 81 81 81 85 92 95 97 98 100 103 102 101 103 105 106 104 104 106 105 105 103 100 95 87 82 86 89 90 86 80 78 79 83 84 84 84 82 80 76 73 70 67 66 66 69 78 88 93 94 93 94 96 99 102 102 98 93 87 82 78 77 76 76 74 71 68 67 65 63 59 54 48 44 39
92 93 94 95 96 94 93 92 88 84 80 78 79 81 81 80 82 84 87 89 90 95 99 100 102 105 107 105 104 106 107 107 105 101 100 97 97 100 100 97 93 91 91 93 95 96 95 94 94 94 91 89 85 77 72 70 66 66 72 80 88 91 92 91 91 94 97 99 99 98 95 91 88 86 86 85 83 79 75 73 71 68 64 60 56 50
84 85 86 87 86 85 85 85 83 81 82 82 80 83 87 85 82 81 83 84 83 83 88 94 98 101 105 105 105 105 106 107 105 103 103 102 102 103 103 102 99 97 98 97 99 100 100 100 99 99 99 100 99 95 88 84 81 75 70 70 73 78 82 84 86 87 89 91 92 93 93 91 88 86 86 89 91 92 89 84 79 75 71 68 65 60
73 72 72 73 73 75 75 76 77 76 77 79 78 80 85 87 86 84 81 81 83 83 80 83 90 94 96 97 99 101 103 104 104 104 104 102 103 104 104 104 104 104 104 102 102 102 102 102 101 101 102 102 102 101 99 96 94 90 83 77 72 70 70 71 74 78 81 83 84 85 87 88 87 85 83 83 86 92 96 95 90 84 78 73 70 67
68 63 60 59 59 60 61 62 65 67 69 71 74 76 77 78 79 80 77 74 74 75 74 74 78 82 88 94 96 96 97 100 100 101 103 103 103 104 102 101 101 102 104 104 103 104 104 103 104 105 105 104 103 100 100 101 99 95 92 88 84 81 77 73 69 68 70 72 74 75 76 77 79 81 83 83 83 85 89 93 93 91 86 81 77 74
68 62 56 52 49 48 49 50 51 53 55 58 62 66 69 71 72 73 72 69 65 62 62 66 67 66 72 82 88 90 92 98 99 99 101 102 101 102 103 103 101 99 101 104 104 103 104 103 102 107 108 104 99 93 92 96 97 94 92 89 87 86 84 84 83 80 77 75 74 73 71 69 66 66 69 74 79 82 84 86 89 91 91 89 85 82
62 58 51 46 44 43 43 44 43 43 44 45 47 49 52 56 60 63 65 65 65 60 57 59 58 53 54 59 66 71 76 82 88 93 98 101 100 98 99 101 102 100 98 99 100 100 102 104 100 99 99 91 84 80 79 82 85 85 83 81 79 79 79 80 84 85 82 79 78 76 76 74 72 69 66 66 68 71 74 76 79 82 84 85 85 84
51 48 45 42 41 41 41 42 42 41 41 40 41 41 42 42 45 49 51 52 53 51 50 50 49 46 45 48 51 54 57 62 67 72 80 88 93 94 96 98 99 99 98 97 97 95 94 98 97 90 86 84 82 80 78 78 77 77 78 79 82 83 83 81 80 81 81 80 81 82 82 80 80 81 81 78 75 72 72 71 71 73 75 76 77 79
44 43 42 40 39 38 39 41 41 42 44 44 44 43 43 43 43 43 43 44 43 41 42 42 42 42 41 43 46 47 50 52 54 59 64 68 73 77 83 89 90 90 94 98 100 99 94 91 93 89 82 81 83 84 82 79 77 76 77 78 80 84 89 90 89 89 87 86 84 83 81 80 80 81 82 84 83 82 82 81 79 79 78 79 79 79
46 45 42 40 39 39 40 41 43 47 49 50 52 52 50 48 48 45 43 43 43 41 43 43 42 41 41 43 46 47 49 50 52 57 60 60 62 63 62 67 72 73 77 84 90 95 95 92 94 96 93 86 82 83 83 80 79 79 78 76 77 79 85 91 95 96 93 89 86 84 84 84 84 84 85 87 85 84 84 83 82 81 80 80 81 81
45 44 42 41 40 41 43 45 50 54 54 54 54 55 53 50 49 48 45 45 44 42 42 42 41 41 41 45 47 47 48 49 50 53 54 55 59 61 57 54 54 53 56 62 69 78 85 88 90 93 96 95 88 82 79 78 78 78 77 78 79 79 80 84 90 95 94 89 86 86 88 90 90 91 92 93 93 93 90 87 85 84 81 80 78 77
38 39 39 41 45 50 53 54 56 55 57 61 63 64 62 59 62 64 60 57 54 52 48 44 42 40 44 52 55 56 56 52 49 50 50 50 51 55 56 54 51 48 47 48 50 55 61 69 77 81 86 90 89 85 81 79 77 74 72 73 75 76 77 79 82 87 90 91 93 93 93 93 93 94 96 96 97 98 98 96 94 92 90 88 85 81
34 33 35 43 53 63 70 75 74 71 72 72 71 73 75 79 86 83 71 64 63 64 61 57 54 49 53 61 58 58 63 64 67 71 67 59 53 52 53 55 55 53 52 51 49 49 48 49 56 64 70 75 79 82 83 81 79 75 71 69 69 70 73 76 79 82 85 89 93 96 98 99 98 100 101 100 99 101 104 103 101 99 95 92 90 88
41 41 43 50 57 64 76 89 92 92 94 89 84 88 92 96 99 90 76 72 75 73 65 64 66 61 65 71 60 57 65 69 77 85 84 79 73 69 68 67 63 59 57 55 53 54 53 52 50 52 56 59 63 67 70 73 74 73 70 67 66 67 70 73 76 80 82 84 87 89 94 99 101 101 101 100 99 99 102 103 104 105 102 99 98 95
57 57 56 62 70 75 83 90 90 92 100 102 99 101 102 100 100 96 92 88 84 79 70 70 74 70 74 77 66 64 72 76 82 88 91 91 89 87 87 85 79 75 72 68 61 58 56 56 55 53 54 54 55 57 58 60 62 63 63 63 62 63 65 68 72 76 80 83 85 87 89 92 94 97 100 103 102 101 100 98 98 100 101 102 102 102
71 71 70 74 81 82 84 87 88 91 102 108 106 103 103 102 99 99 103 100 93 89 84 84 85 81 81 80 70 67 71 76 86 96 99 100 101 101 100 99 93 85 84 83 78 73 68 63 59 55 54 54 53 53 53 53 53 54 55 56 56 56 56 59 62 65 68 71 74 75 76 76 78 82 88 94 98 102 103 102 99 98 100 101 101 102
83 86 85 82 84 84 81 83 89 94 99 103 103 104 106 107 105 102 105 107 100 92 85 84 83 79 79 80 74 67 66 68 73 83 92 97 104 107 104 105 102 93 89 88 84 83 81 77 72 65 61 58 56 55 52 51 50 50 50 51 50 50 50 51 53 55 56 58 59 61 63 67 71 75 80 85 89 95 101 103 103 101 101 102 101 102
94 96 91 86 89 91 87 88 94 98 97 94 95 100 103 105 106 105 106 105 94 82 75 74 74 71 71 72 67 62 61 64 68 77 89 96 101 104 102 105 107 103 101 96 90 88 86 83 80 75 71 67 64 61 57 54 52 50 50 51 50 50 49 48 47 47 48 48 49 52 54 59 65 70 76 81 85 89 92 96 99 101 100 101 102 102
97 97 97 95 97 98 97 98 102 104 103 97 94 97 100 101 102 98 93 87 81 78 74 68 63 57 55 54 52 54 61 69 75 80 86 87 85 84 83 85 88 92 98 99 98 97 93 90 86 82 80 76 73 72 68 62 59 55 52 52 51 51 51 50 49 47 45 44 43 44 46 49 53 58 63 69 74 77 81 84 87 91 93 95 97 98
100 100 100 98 98 99 99 102 106 108 108 104 101 100 98 97 94 88 82 76 74 75 68 58 51 47 47 51 52 57 64 67 66 64 62 60 57 55 52 51 53 57 64 72 79 82 82 82 80 76 75 73 72 74 71 66 63 60 57 55 54 52 51 49 48 48 47 45 43 41 40 42 44 48 52 56 60 64 67 72 76 79 82 84 87 88
97 97 93 87 84 86 90 96 100 101 102 100 98 97 97 95 89 83 80 76 72 66 55 51 55 55 60 67 69 67 64 58 51 47 45 43 40 39 37 36 35 37 38 41 45 48 49 51 52 51 51 51 51 53 52 50 50 50 49 50 51 53 53 50 45 44 44 43 44 43 41 41 41 42 44 46 50 52 54 56 58 61 65 69 72 75
92 90 86 81 78 78 80 83 86 88 90 93 93 93 94 94 89 86 81 74 64 54 50 60 68 65 64 69 70 66 60 55 49 43 38 33 29 28 28 27 27 27 28 28 27 28 29 30 32 33 33 33 33 34 35 35 36 37 36 36 38 42 45 45 42 41 40 38 39 38 38 39 39 38 39 39 41 43 46 48 48 49 51 53 56 59
97 94 90 87 81 77 76 79 85 90 91 95 97 95 92 89 88 87 78 69 61 57 66 78 72 59 58 63 63 57 51 47 42 36 31 27 25 23 22 22 22 21 21 21 22 22 23 23 24 24 24 25 25 27 28 30 31 32 32 31 30 30 32 34 35 37 38 36 36 35 34 34 35 35 35 34 34 35 36 39 41 44 46 47 48 50
100 98 97 96 91 88 87 88 94 97 95 96 94 92 92 91 87 80 71 66 67 72 81 79 64 56 60 61 54 46 39 35 32 29 27 25 23 22 22 21 20 20 19 19 20 20 21 21 22 22 22 22 22 23 25 28 29 30 31 29 28 26 25 26 27 29 30 31 32 33 34 35 36 36 36 35 35 35 34 35 37 39 41 42 43 42
100 99 99 100 103 101 95 93 96 95 92 92 90 88 91 87 78 74 71 68 69 75 73 61 54 60 61 52 43 37 32 30 28 25 23 22 21 21 20 19 18 17 17 17 17 18 18 18 18 18 19 18 19 20 20 22 24 25 27 28 27 27 25 24 24 24 24 25 27 29 31 33 35 37 38 39 39 38 38 36 35 34 32 31 29 26
101 103 102 101 103 101 95 93 94 92 90 89 89 86 80 75 74 73 68 62 63 67 58 46 47 54 47 37 34 33 31 29 26 22 20 18 18 16 15 15 15 15 15 15 14 14 14 14 14 14 14 14 14 15 15 16 17 17 19 20 22 23 24 25 25 25 25 25 25 25 26 26 27 28 29 29 29 29 29 27 25 23 20 18 16 15
104 101 100 100 100 97 93 92 93 94 91 85 78 73 70 71 71 66 58 57 59 57 46 37 37 37 33 30 30 29 27 24 20 18 16 15 14 14 14 14 13 13 13 13 12 12 12 12 12 12 11 11 11 11 11 12 12 12 13 13 14 15 16 17 19 19 20 20 20 19 18 17 17 17 17 17 17 16 16 15 15 15 14 14 13 12
105 102 97 98 99 95 93 95 94 90 83 73 65 62 62 62 57 53 53 53 50 44 37 34 32 28 25 25 24 22 19 17 16 15 14 14 14 13 12 12 12 12 13 13 13 13 12 12 12 12 11 11 11 10 10 9 9 9 9 10 10 10 11 11 11 12 12 12 12 12 12 11 11 11 11 11 11 11 11 11 11 11 12 12 12 12
102 105 98 96 99 95 90 92 91 84 77 68 56 50 50 48 43 42 43 40 37 35 33 30 28 23 19 17 16 15 14 13 14 14 13 14 14 13 14 13 13 12 12 13 14 14 14 14 13 13 12 12 11 11 10 9 9 8 8 8 8 8 8 8 8 9 8 8 8 8 8 8 8 8 8 8 8 8 9 9 9 9 9 9 10 10
100 103 98 95 97 90 81 83 86 82 71 54 39 38 43 40 34 30 30 30 31 30 27 23 19 16 14 14 13 12 12 13 14 13 13 14 13 13 14 13 13 13 12 13 13 13 13 13 12 11 10 10 10 9 9 9 8 8 8 8 8 7 8 7 7 7 7 7 7 7 7 7 6 6 6 7 7 7 7 7 7 7 8 8 8 8
102 102 98 93 91 84 76 79 80 69 51 33 28 35 38 30 25 24 25 26 25 22 19 16 14 13 13 13 12 12 13 14 14 14 13 12 12 12 12 12 13 13 12 12 11 11 10 10 10 10 9 9 9 8 8 8 7 7 7 7 7 7 7 7 7 7 7 7 7 6 6 6 6 6 6 6 6 6 6 6 6 6 7 7 7 7
94 94 93 88 86 82 72 66 59 44 30 25 28 32 29 24 23 22 20 20 19 17 16 14 14 14 14 13 13 14 14 13 13 12 11 12 12 12 13 13 13 13 12 12 11 10 10 9 9 9 9 9 9 9 8 8 7 7 7 7 7 7 7 7 7 7 7 7 7 7 7 6 6 6 6 6 6 6 6 6 6 6 6 6 6 6
88 90 89 82 77 71 57 46 38 28 22 23 23 23 22 21 20 19 18 18 17 16 15 15 16 16 15 14 13 12 11 10 10 11 12 13 13 13 13 13 13 13 12 12 11 11 11 10 10 10 10 10 10 10 10 9 9 8 8 7 7 7 7 7 7 7 7 7 7 7 7 7 7 7 6 6 6 6 6 6 6 6 6 6 6 6
90 86 78 68 60 50 40 32 26 20 18 17 17 17 17 17 17 18 18 17 16 16 15 15 16 15 14 12 11 10 10 11 11 13 14 13 12 12 13 13 13 13 13 12 12 12 12 12 11 11 10 10 10 10 10 9 9 9 9 9 8 8 8 7 7 7 7 7 7 7 7 7 7 7 7 7 7 7 7 6 6 6 6 6 6 6
77 69 59 50 40 31 27 23 18 16 14 13 14 15 15 16 17 17 17 15 15 14 13 13 13 12 11 11 11 11 11 11 12 14 15 15 14 14 14 14 14 14 13 13 12 12 12 12 10 9 9 9 9 8 8 8 9 8 8 8 8 8 8 7 7 7 7 7 7 7 7 7 7 7 7 7 7 7 7 7 7 7 7 6 6 6
55 47 40 33 25 21 21 18 15 13 12 12 14 15 15 16 16 15 14 13 12 12 12 12 11 11 11 12 12 12 12 13 14 16 17 16 15 15 15 15 14 14 13 12 12 11 11 10 9 8 8 7 7 7 7 7 7 8 8 8 8 7 7 7 7 7 7 6 6 6 6 6 6 6 6 6 7 7 7 7 7 7 7 7 6 6
36 30 25 22 20 19 19 17 14 13 12 13 15 15 15 15 14 13 11 9 10 11 11 10 11 12 13 13 13 14 15 15 16 17 17 16 16 16 16 15 14 13 12 11 11 10 9 9 8 8 7 7 7 6 7 7 7 7 7 7 7 7 7 7 7 7 7 6 6 6 6 6 6 5 5 5 5 6 6 6 6 6 6 6 6 6
23 21 20 20 19 18 17 16 14 13 13 13 14 14 14 14 12 12 10 9 9 10 9 9 11 12 13 14 15 16 16 16 16 16 17 16 16 15 14 13 12 11 11 11 10 9 9 9 8 8 7 7 7 7 7 7 7 7 7 7 7 7 7 7 6 6 7 7 7 7 6 6 6 5 5 5 5 5 5 5 5 5 5 5 5 5
19 19 18 16 16 16 16 15 13 12 12 13 14 15 15 15 14 12 9 8 8 9 10 11 12 13 14 15 14 15 15 15 15 14 14 14 14 12 11 11 10 10 10 10 9 9 9 8 8 8 8 7 7 7 7 7 7 7 7 7 7 6 6 6 6 6 7 6 6 7 7 6 6 6 5 5 5 5 5 5 5 4 4 4 5 4
15 15 14 14 15 15 14 13 12 12 12 14 17 18 16 15 13 10 9 9 10 11 12 13 13 13 13 13 13 14 14 13 13 12 11 11 11 10 10 9 8 9 8 9 9 9 9 8 8 8 8 7 7 7 7 7 7 7 7 7 6 6 6 6 6 6 6 7 6 6 6 6 6 5 5 5 5 5 5 5 5 4 4 4 4 4
12 13 14 14 15 15 14 13 12 13 13 14 16 17 15 13 10 10 11 12 13 14 14 14 14 14 13 13 13 13 12 12 12 11 10 9 9 9 9 9 9 9 8 9 9 9 10 9 9 9 8 8 8 7 7 7 7 7 7 6 6 6 6 6 6 6 6 6 6 6 6 5 5 5 5 5 5 5 5 5 4 4 4 4 4 4
12 14 16 16 16 17 15 12 12 14 14 14 15 16 13 12 12 13 14 14 13 14 14 14 15 14 13 13 11 12 12 12 11 10 9 9 9 8 9 9 9 9 9 10 10 10 10 10 10 10 10 9 9 8 8 8 7 7 6 6 6 6 6 6 6 6 6 6 6 5 6 5 5 5 5 5 5 4 4 5 4 5 4 4 4 4
13 18 20 18 17 17 16 13 13 16 16 13 13 13 13 13 14 14 14 13 14 15 16 16 15 13 12 11 10 10 10 9 9 9 9 9 9 9 9 9 9 10 10 9 10 10 10 10 10 10 10 9 9 9 8 8 8 7 7 7 6 7 7 7 6 6 6 6 6 6 6 6 6 5 5 5 5 4 4 4 4 4 4 4 4 4
16 21 23 20 18 18 17 16 17 19 18 15 13 11 10 10 11 11 12 13 14 14 14 13 12 12 11 11 10 9 9 9 9 9 9 10 10 10 10 10 10 10 10 9 10 10 9 10 10 10 10 10 9 9 8 8 7 7 7 7 7 7 7 7 7 7 7 7 6 6 6 6 6 6 6 5 5 5 4 4 4 4 4 4 4 3
20 25 25 23 22 20 16 17 20 22 20 16 14 12 10 10 9 10 11 12 13 13 11 10 10 10 10 9 8 8 9 9 10 10 11 12 11 11 11 11 10 10 10 9 10 10 10 10 10 10 10 10 9 9 8 8 7 7 7 7 7 8 7 7 7 7 7 7 7 6 6 6 6 6 6 5 5 5 4 4 4 4 4 3 3 3
25 30 29 27 25 19 14 15 20 21 18 14 12 12 12 11 10 10 11 12 13 12 10 9 9 9 9 10 10 10 11 11 11 11 11 11 11 11 11 11 11 11 10 10 10 11 11 11 11 11 11 10 10 9 9 9 8 7 7 8 8 8 8 7 7 7 7 7 7 6 6 6 6 5 5 5 4 4 4 4 4 3 3 3 3 3
31 33 31 29 23 16 13 15 16 16 14 13 13 13 12 10 10 10 12 12 12 10 9 9 9 10 11 11 11 12 12 12 11 11 10 10 11 11 11 11 11 11 11 11 11 11 11 11 11 11 11 11 11 11 10 9 9 8 8 9 9 8 8 8 8 8 7 7 6 6 6 5 5 5 5 5 4 4 4 3 3 3 3 3 3 3
35 34 31 28 20 13 11 14 16 16 13 12 12 13 12 11 11 11 12 11 10 9 10 11 12 12 12 13 13 12 12 11 11 10 10 10 10 10 10 10 10 10 10 10 10 11 11 11 11 11 11 11 11 10 10 9 9 9 9 9 8 8 8 8 8 7 7 6 6 6 5 5 5 5 4 4 4 4 4 4 3 3 3 3 3 2
37 33 27 23 17 12 11 14 17 15 12 10 11 13 13 13 11 10 10 10 11 12 12 13 13 14 14 14 13 12 11 11 10 9 9 9 9 9 9 9 9 9 9 9 9 10 10 9 9 9 9 9 9 9 9 8 7 8 8 8 8 7 7 7 7 6 6 6 6 5 5 5 5 5 5 4 4 4 4 4 4 3 3 3 3 3
Wind_Speed
45 42 38 42 46 47 44 41 40 40 40 41 42 44 45 47 49 51 52 52 51 51 53 54 53 51 51 51 51 51 50 50 52 53 53 54 53 51 50 49 49 50 49 49 50 51 51 51 50 51 52 52 51 50 49 49 49 49 50 51 52 52 52 53 53 54 53 53 52 52 51 51 52 52 52 52 51 50 50 49 49 48 49 49 47 46
47 45 43 46 49 50 48 45 44 43 42 42 42 42 43 44 46 48 50 51 51 51 53 54 52 52 53 54 54 55 54 53 53 53 54 56 56 54 53 53 53 52 52 52 53 54 54 55 55 55 55 55 55 54 53 52 51 51 52 53 53 53 54 54 54 55 55 55 55 54 54 54 54 54 55 55 55 54 54 54 54 54 54 53 53 51
48 48 49 50 52 53 52 51 50 50 49 47 46 45 44 45 46 46 47 49 50 51 53 53 53 52 54 55 55 57 59 57 54 51 53 57 58 58 57 56 56 56 56 55 56 57 58 58 58 58 58 58 58 58 57 56 55 54 54 54 55 55 56 56 56 56 56 56 56 56 56 56 56 56 57 57 57 58 58 57 57 58 58 57 57 57
52 52 53 54 56 56 56 56 56 56 54 53 52 51 50 51 50 48 48 48 48 50 51 52 52 53 56 56 56 59 61 61 56 51 54 58 59 59 60 59 58 58 59 60 61 61 61 61 60 60 60 60 60 60 60 60 60 59 58 58 58 58 58 58 58 59 58 58 58 58 58 59 59 59 59 59 59 60 60 60 60 61 61 61 61 61
57 59 59 58 59 60 60 61 60 59 59 59 58 57 57 58 57 55 54 53 51 50 50 50 50 51 56 58 59 62 63 63 57 53 57 60 60 61 61 62 62 62 63 64 65 65 64 64 63 63 62 62 62 62 62 62 62 62 62 62 62 62 62 62 61 61 62 61 61 61 60 61 62 62 62 61 61 62 62 62 63 63 63 63 64 64
62 64 65 63 63 63 64 65 66 64 62 63 63 63 63 63 61 60 60 59 56 55 54 54 52 50 53 57 60 63 66 66 61 59 62 63 64 65 65 65 66 66 67 68 68 69 68 67 67 67 66 66 65 65 64 64 64 64 64 65 66 66 66 66 66 65 65 65 65 65 64 64 64 64 64 64 64 64 64 65 65 65 65 65 66 66
65 67 68 68 67 68 68 70 71 70 67 67 67 68 69 68 67 65 65 64 62 61 59 60 59 56 54 58 62 63 65 66 63 63 66 66 68 69 70 70 71 71 72 73 73 73 72 70 70 71 71 70 69 68 68 67 66 66 66 67 67 68 69 69 69 69 69 69 69 70 69 69 69 68 67 67 67 67 67 68 68 68 68 68 68 68
67 69 69 70 70 70 71 73 75 75 74 72 73 74 73 73 72 71 71 69 68 66 64 64 68 64 59 62 67 67 67 67 63 64 67 67 69 71 72 74 74 74 74 75 75 76 76 74 73 74 75 74 72 71 70 69 68 68 68 69 69 69 70 70 70 70 70 71 71 72 73 74 74 73 72 72 71 71 71 72 72 72 72 71 70 70
68 69 70 70 70 70 71 72 75 76 76 76 77 77 77 77 77 77 76 74 74 72 68 70 76 73 66 67 71 71 72 71 68 69 72 71 72 72 73 75 76 76 76 77 77 77 78 78 77 75 76 77 76 74 72 71 71 72 73 74 74 73 73 73 72 72 72 72 72 72 73 74 75 75 75 74 74 74 74 75 76 76 76 76 75 74
67 67 69 69 69 69 69 70 72 73 74 74 75 75 75 76 76 77 77 76 77 75 71 75 80 79 74 72 74 75 76 76 73 74 77 79 79 77 78 80 81 81 81 82 81 79 79 79 79 77 76 78 79 79 79 78 78 78 79 80 79 79 78 77 76 76 76 75 74 73 73 73 74 74 75 75 76 76 76 77 77 78 78 79 79 79
65 66 68 69 69 69 68 68 69 70 71 71 71 71 71 72 73 74 74 75 76 72 70 73 76 76 73 72 74 76 78 80 78 79 81 83 85 84 84 86 88 87 87 88 87 86 85 84 83 81 79 79 81 82 83 83 84 84 84 84 84 83 83 82 81 81 80 79 78 77 77 77 77 77 77 77 78 78 79 79 79 80 80 80 81 81
66 66 67 69 69 70 69 69 69 70 71 71 71 71 71 72 73 74 74 75 76 73 72 73 73 72 69 68 70 73 76 79 79 81 83 86 88 89 89 90 93 93 93 94 94 93 92 91 90 88 87 85 85 85 86 86 86 86 86 86 86 86 86 86 86 85 85 84 83 83 83 83 83 83 83 83 83 83 84 84 84 84 84 85 85 85
67 67 68 69 70 71 72 72 73 74 75 76 77 78 78 77 79 81 81 82 83 82 82 81 80 77 73 73 75 76 78 79 79 80 82 85 88 90 92 93 95 97 97 98 99 99 100 99 98 96 95 93 92 91 91 91 90 89 89 88 87 88 88 89 89 89 89 89 89 88 88 88 88 88 88 88 88 89 89 89 90 90 90 90 90 90
69 68 69 71 73 75 76 77 79 79 80 82 84 85 87 88 91 93 93 93 93 93 93 92 90 87 86 87 88 87 87 86 85 85 85 86 88 91 93 94 94 95 96 96 98 101 102 103 104 103 102 101 100 99 98 98 97 96 95 93 92 92 92 92 93 93 93 94 94 93 93 93 93 93 93 93 93 93 94 94 94 95 95 95 95 95
74 72 72 75 78 80 82 84 85 85 87 89 90 92 95 97 100 102 102 102 103 104 104 102 99 97 97 99 99 99 99 98 97 97 95 95 95 96 98 99 99 97 96 96 97 98 100 102 104 106 106 106 106 105 104 104 104 103 102 100 99 98 97 97 96 96 97 97 97 97 97 97 97 97 98 98 98 98 99 99 99 99 99 100 100 100
80 79 78 81 83 84 85 87 89 91 93 95 96 98 100 102 105 109 109 109 111 113 112 109 108 107 106 108 107 106 107 108 108 107 106 105 104 104 104 105 105 105 103 102 101 100 100 101 103 105 107 108 109 108 108 108 108 108 107 106 105 104 102 101 101 101 101 101 101 101 102 102 102 102 102 103 103 103 103 103 103 104 104 104 105 105
88 87 86 86 88 89 89 90 93 95 97 99 100 101 103 106 110 114 116 116 118 120 118 115 114 114 114 115 114 113 114 115 115 114 113 112 111 111 109 107 107 109 110 110 108 107 106 105 105 106 107 109 110 110 110 110 111 112 111 111 110 109 108 107 106 106 106 106 106 107 107 107 107 107 107 107 107 107 107 107 108 108 109 109 110 110
95 94 92 91 93 95 94 95 97 99 101 103 106 107 109 112 115 117 119 121 123 125 124 122 121 120 120 120 120 120 120 119 118 117 117 116 115 113 111 109 110 112 114 114 114 114 113 113 112 112 112 112 113 113 113 114 114 115 116 116 116 115 115 114 113 112 112 112 112 112 112 113 113 113 113 113 113 113 113 113 113 113 113 114 114 115
100 99 98 97 99 101 101 100 101 103 106 109 111 113 115 117 119 120 122 124 127 129 130 129 128 126 124 123 122 122 121 120 119 118 118 117 117 115 114 112 113 114 115 117 118 119 119 120 120 119 118 118 118 118 118 118 118 119 119 119 120 120 120 120 120 119 118 118 118 118 117 118 118 118 118 119 119 119 119 120 120 120 119 119 118 119
103 104 103 103 104 106 106 106 106 109 113 115 117 118 120 122 124 125 127 129 131 134 135 135 134 130 125 121 120 119 119 119 118 118 118 117 117 118 118 118 117 117 118 119 120 122 123 124 125 125 125 124 124 124 123 123 123 123 123 123 123 124 124 125 125 125 124 124 123 123 122 122 122 123 123 123 124 124 125 125 126 127 127 126 125 125
108 110 110 108 109 110 111 111 113 116 119 121 123 124 125 127 129 132 133 134 136 138 140 139 135 130 124 120 117 117 117 117 118 118 118 118 118 118 119 120 120 121 122 122 123 124 126 128 129 130 131 130 130 130 130 129 128 128 128 128 128 128 128 129 129 129 129 129 128 128 128 127 127 127 127 127 128 128 129 130 130 131 131 132 132 131
114 116 117 116 115 115 116 117 120 123 125 127 128 130 131 133 135 138 138 138 139 140 140 137 134 129 123 119 118 117 117 116 116 116 116 116 116 117 116 117 117 119 121 123 125 127 128 130 132 134 135 135 135 136 136 136 135 133 133 133 133 134 133 133 133 133 132 132 132 132 132 132 132 131 131 131 132 132 133 134 134 135 135 135 136 136
119 121 123 123 122 121 120 121 125 128 131 133 134 134 135 138 140 141 142 142 141 139 135 134 132 128 123 120 120 119 117 115 114 114 114 114 114 113 113 113 113 114 116 118 120 122 125 127 130 132 133 134 135 136 136 137 137 136 135 135 136 137 137 137 137 136 136 136 135 135 135 135 135 135 135 136 136 136 137 137 138 138 139 139 139 140
123 125 126 127 126 126 125 126 128 133 136 138 138 139 139 140 142 144 144 143 140 137 132 131 131 127 123 121 120 119 117 115 115 114 113 112 111 111 110 110 110 111 112 113 114 116 117 119 122 125 127 129 130 131 132 132 133 133 134 134 136 137 138 139 139 139 139 138 138 138 139 139 139 139 139 139 139 140 140 141 142 142 143 143 143 144
125 128 130 131 132 132 131 131 133 136 139 141 142 142 142 143 144 144 143 141 138 134 130 130 130 126 122 121 120 118 117 116 115 114 113 111 109 108 108 108 108 108 109 110 110 111 112 113 115 117 120 122 124 125 126 127 128 129 130 131 132 134 136 138 139 140 140 140 140 140 141 141 141 141 141 142 142 142 143 144 145 145 146 146 146 146
130 132 134 136 137 137 136 136 137 139 142 143 144 144 145 145 144 142 140 138 135 131 130 131 129 124 122 122 120 117 116 116 115 114 112 111 110 109 108 108 108 107 107 108 108 109 110 110 111 112 113 115 117 119 120 121 123 124 125 126 128 129 131 133 134 136 137 138 139 139 140 141 141 141 142 143 143 144 145 145 146 146 147 147 147 146
134 135 137 139 141 142 141 139 140 142 144 146 147 147 146 144 141 138 136 134 131 131 131 128 125 125 124 121 118 117 117 117 116 115 113 112 111 111 110 109 109 108 108 108 108 109 109 110 110 110 110 110 111 113 114 116 117 118 120 121 123 124 126 128 129 131 133 134 135 136 137 138 139 140 141 142 143 143 144 145 145 145 145 145 145 144
139 140 141 142 144 144 143 142 143 145 148 150 149 146 143 139 137 134 132 131 131 133 130 124 122 124 123 118 117 118 119 119 118 117 115 113 112 111 110 110 110 110 110 110 110 110 110 110 109 109 109 109 109 109 110 111 112 113 114 116 118 119 121 123 125 127 129 131 132 133 134 135 136 137 138 139 140 141 141 142 142 142 142 141 140 140
144 144 144 145 146 146 146 147 148 150 150 149 146 142 138 134 131 130 129 130 131 132 129 123 121 121 119 118 118 119 120 120 119 119 117 115 114 112 111 111 111 111 112 112 112 111 111 110 110 109 109 109 108 108 109 109 110 111 112 113 114 116 117 119 121 123 124 126 128 129 130 131 132 132 133 134 135 136 137 137 138 138 139 138 137 136
146 146 146 148 149 150 150 149 150 150 148 145 141 137 133 129 127 127 128 128 128 128 126 123 123 121 119 119 120 120 119 118 118 118 117 117 116 115 113 112 112 112 112 112 112 111 111 110 109 109 108 108 108 108 108 108 109 110 111 112 113 114 115 117 118 119 120 122 123 124 125 126 126 127 127 128 130 131 132 133 134 135 136 136 136 135
147 147 150 151 152 151 150 148 148 148 146 143 137 131 127 125 124 125 125 124 124 124 123 124 125 123 120 120 121 119 117 116 116 116 116 116 116 116 114 113 112 111 110 110 109 109 108 107 107 106 106 106 106 106 106 107 107 108 108 109 110 112 113 114 115 116 117 118 119 120 120 121 121 122 123 124 125 127 128 129 131 132 133 134 134 133
150 150 151 153 152 150 147 145 145 145 144 138 130 124 124 124 122 121 121 122 123 124 124 124 124 122 122 122 120 118 117 116 116 115 114 114 114 113 113 111 110 109 107 106 106 105 105 104 104 104 104 104 103 103 103 103 103 104 104 105 106 107 108 110 111 111 112 113 114 115 115 116 116 117 117 119 120 121 123 124 126 127 129 130 131 131
150 150 150 151 150 147 144 143 143 143 140 131 123 122 123 121 119 119 120 122 123 123 124 123 122 122 123 122 119 117 117 116 114 113 111 111 110 110 109 108 107 106 104 104 104 103 102 102 102 103 103 103 103 102 102 101 101 100 100 101 101 103 104 105 106 107 107 108 109 109 110 110 110 111 111 112 114 114 115 117 118 120 122 123 125 126
148 148 148 148 148 145 142 141 141 139 132 123 120 121 122 121 121 122 122 122 122 122 122 122 122 123 123 120 117 116 116 114 111 109 108 108 108 107 105 104 103 103 103 103 103 102 101 101 101 102 102 103 102 102 102 101 100 100 99 99 99 99 100 101 102 103 104 105 106 106 107 108 108 108 108 108 109 109 110 110 112 113 115 116 118 119
146 146 145 145 145 143 140 138 137 132 125 120 120 120 120 121 123 124 123 121 120 119 119 119 121 121 120 117 115 113 112 109 107 105 104 105 106 104 103 102 102 102 102 102 102 102 101 101 101 101 102 102 102 101 101 100 100 100 99 99 99 98 98 98 99 100 101 101 102 104 105 106 106 106 106 106 106 106 106 107 108 108 109 111 112 113
144 144 143 142 142 140 137 135 132 128 123 120 119 119 119 120 122 123 122 120 117 115 114 116 117 117 116 114 112 109 107 105 102 101 102 105 105 104 102 102 102 102 102 102 101 100 100 100 101 100 100 99 99 99 98 98 98 98 98 98 98 97 97 97 97 97 97 98 99 100 101 102 102 103 103 103 103 103 103 104 105 106 106 108 109 110
141 141 140 140 138 136 135 133 130 127 123 119 118 119 119 119 118 119 119 116 112 109 110 112 114 113 110 109 107 105 103 101 99 99 102 105 105 104 103 102 101 101 101 100 99 99 99 100 100 99 98 97 97 96 96 96 96 96 96 96 96 96 96 96 96 95 96 96 97 97 97 98 98 98 98 99 100 100 100 101 102 103 104 105 106 107
138 138 137 137 135 134 134 132 129 126 122 118 117 118 118 117 115 115 116 113 107 105 106 108 109 107 106 105 104 103 101 100 98 99 101 104 103 102 101 100 100 100 100 100 99 99 99 99 99 98 96 95 94 94 93 93 93 93 93 94 94 94 93 94 94 94 94 94 94 94 94 95 95 94 94 95 95 96 97 98 99 100 101 102 103 104
135 135 135 136 134 133 133 131 128 124 120 117 117 116 115 114 113 113 113 108 103 102 102 101 101 102 102 102 102 102 101 99 98 98 99 101 100 100 100 99 99 99 99 99 99 98 98 98 97 97 95 93 92 91 91 91 90 90 90 90 90 90 90 91 91 91 91 91 92 92 92 92 92 92 91 91 92 92 93 94 96 97 98 99 100 100
132 133 134 134 132 130 129 127 124 120 116 114 115 115 113 112 111 111 110 105 101 100 99 97 98 99 100 100 100 100 99 98 96 96 97 98 99 99 98 97 97 97 98 98 97 96 96 96 95 95 93 92 91 90 89 89 88 88 87 87 87 87 87 87 87 88 88 88 89 89 90 90 90 90 90 90 89 89 90 90 92 93 94 96 97 97
129 130 130 129 126 124 123 122 120 115 110 109 111 112 111 110 110 109 107 104 101 99 97 96 97 98 98 99 98 97 96 96 96 95 95 96 97 97 97 95 94 94 95 96 95 95 94 93 93 92 91 90 89 88 88 87 87 87 86 86 86 86 85 85 85 85 86 86 86 87 88 89 89 89 89 89 89 88 88 89 90 90 91 91 92 93
125 125 123 120 119 118 117 117 115 110 105 104 107 108 108 108 108 107 105 103 101 99 97 97 96 96 97 97 97 97 96 96 96 95 94 94 95 95 95 94 93 92 92 92 93 93 93 92 91 90 89 88 87 86 86 86 85 85 86 86 85 84 84 84 84 84 84 85 85 86 87 88 88 88 88 88 89 88 88 89 90 90 89 89 89 89
119 118 115 113 112 113 112 111 110 107 103 102 105 106 106 106 106 104 103 102 100 98 97 97 96 95 96 96 97 97 96 95 95 95 94 93 93 93 92 92 91 91 90 90 90 90 91 90 89 89 88 87 87 86 85 85 85 85 85 85 83 83 83 83 83 83 83 84 85 86 86 86 87 88 88 88 89 89 88 89 90 90 90 89 89 89
113 112 110 108 107 108 107 104 104 105 104 103 104 106 105 104 103 102 101 100 97 96 96 96 96 95 95 95 95 95 95 95 95 95 94 93 92 91 90 89 89 89 88 88 88 88 88 88 87 87 87 87 86 86 85 85 85 85 85 84 83 82 82 82 82 82 83 83 84 84 85 86 86 87 88 88 88 88 88 88 89 89 90 90 89 89
108 108 107 104 102 104 104 101 101 105 105 104 105 105 103 101 100 99 98 96 94 94 95 95 95 95 94 94 94 93 94 94 94 94 93 92 90 90 89 88 87 87 86 86 86 86 86 85 85 86 86 86 86 85 85 85 85 84 84 84 83 83 82 82 82 82 82 83 83 84 85 86 87 88 88 88 88 88 88 88 88 88 89 89 89 89
104 103 104 102 100 100 101 100 102 105 105 104 105 104 102 99 96 95 95 93 92 92 93 94 93 93 92 93 93 93 93 92 92 91 90 89 89 88 88 87 86 85 85 84 84 84 84 84 84 84 85 85 86 85 85 85 84 83 83 83 83 83 82 82 81 81 82 82 83 84 85 85 86 87 88 88 88 88 87 87 88 88 89 89 88 88
101 100 100 100 99 100 99 98 101 104 103 101 102 103 102 100 96 94 94 92 92 92 93 93 92 92 92 92 91 90 90 90 89 89 88 88 87 86 86 86 85 84 84 83 82 82 82 83 83 83 84 84 85 84 84 84 83 83 82 82 82 82 81 81 80 80 80 81 82 83 83 83 84 85 86 86 86 86 86 86 87 86 87 87 86 86
99 99 98 98 100 99 96 96 99 102 100 98 98 100 100 98 95 93 93 93 93 93 93 92 91 91 92 92 91 89 89 89 88 87 87 86 85 84 84 83 83 82 82 81 80 80 81 81 82 82 82 83 83 83 83 83 83 82 81 80 81 81 80 80 80 79 80 81 81 81 81 81 82 82 82 83 83 83 83 84 84 83 83 83 83 82
98 97 97 99 99 95 92 94 98 99 98 96 96 97 98 95 92 91 92 94 94 94 92 91 91 91 91 91 90 89 88 88 87 86 84 83 83 83 82 81 81 80 80 79 79 79 79 80 80 81 81 81 81 81 82 82 82 81 80 80 80 80 80 80 79 80 80 80 80 80 79 79 79 79 79 79 80 80 80 80 80 79 79 79 79 78
97 97 96 98 97 92 90 94 98 99 97 93 92 95 95 93 91 91 93 94 94 93 91 90 90 90 90 90 89 88 87 86 85 84 83 82 82 82 82 81 81 80 79 79 78 78 79 79 79 80 80 80 80 80 81 81 80 79 79 79 80 80 79 78 78 78 79 78 77 77 76 76 76 76 76 77 77 78 78 78 78 77 77 77 76 76
97 96 94 97 97 94 92 94 98 99 95 90 90 92 93 92 91 91 91 92 92 91 90 90 89 89 89 88 88 88 87 86 85 84 83 82 81 81 81 80 80 79 79 78 78 78 78 78 78 78 78 78 78 78 79 78 77 76 76 77 77 77 77 76 75 75 75 74 74 74 74 74 74 74 74 75 75 75 76 77 77 76 75 75 74 74
Wind_Direction
271 269 268 270 272 272 272 271 270 271 273 273 273 272 270 269 268 269 269 270 269 269 269 270 271 273 272 270 268 267 266 268 272 276 279 280 280 280 279 278 277 277 277 276 276 275 274 273 273 274 275 276 276 275 274 273 271 271 271 272 273 273 274 274 274 273 273 271 270 270 270 270 271 272 273 273 272 272 272 271 270 269 267 266 264 261
271 273 271 270 271 272 272 270 267 267 268 270 272 272 271 269 267 267 268 268 269 269 268 268 269 270 271 270 269 267 265 266 268 272 276 276 276 277 277 278 278 278 277 276 275 275 275 274 274 275 275 276 276 275 274 273 271 270 269 269 270 271 272 272 272 272 272 272 271 271 270 270 271 271 271 272 272 272 272 272 271 271 270 270 269 266
270 272 272 271 271 271 272 271 269 267 267 267 268 269 269 268 266 266 266 266 266 267 267 267 267 267 267 267 268 267 266 266 267 269 271 272 274 275 276 277 276 276 276 275 274 274 274 274 274 275 275 276 276 276 274 273 272 270 269 269 268 268 268 269 269 270 270 270 270 270 270 270 270 270 270 271 271 271 271 271 271 271 271 271 271 270
271 271 271 272 272 272 272 271 270 270 269 268 268 268 267 266 265 265 266 266 266 266 265 266 266 265 265 264 265 266 267 267 268 267 267 268 271 274 275 275 274 274 274 274 273 273 273 273 273 273 274 274 275 275 275 274 273 272 270 269 268 268 267 267 267 267 267 268 268 269 269 269 269 269 269 269 270 270 271 271 271 271 272 272 271 271
275 274 272 271 273 274 274 273 272 271 271 271 270 269 268 266 266 265 265 265 266 266 265 264 263 263 265 265 264 264 265 267 268 266 264 266 269 271 272 273 272 272 271 272 272 272 272 272 272 272 273 273 273 273 273 273 273 273 272 271 270 269 269 268 267 266 266 265 266 266 267 268 268 268 268 268 268 269 269 269 270 270 271 271 271 272
277 277 276 274 273 274 275 275 274 273 272 272 272 271 270 268 268 267 266 265 266 266 265 264 262 262 265 268 266 266 266 266 267 266 264 265 267 268 269 270 270 271 270 270 270 271 272 272 272 272 271 271 271 271 271 271 271 271 272 272 271 271 270 270 269 268 267 266 265 265 265 266 267 267 268 268 268 268 268 268 268 268 269 270 270 271
278 278 278 278 277 275 275 275 275 275 274 273 273 273 272 271 271 270 269 268 267 267 267 266 264 260 262 268 270 269 269 268 267 266 266 266 266 267 267 268 269 269 269 269 269 270 270 271 271 272 272 272 271 271 271 271 270 270 270 271 271 272 272 271 271 270 269 268 267 266 266 265 265 265 266 267 268 268 268 268 268 268 269 269 269 269
278 278 279 279 279 278 277 276 275 275 274 273 273 273 273 273 273 272 272 271 270 269 270 271 269 263 260 265 268 269 269 269 268 268 268 266 266 266 267 268 268 268 268 268 268 268 268 267 268 270 271 271 271 272 271 271 271 271 270 270 270 271 271 271 271 270 269 269 269 268 268 267 267 266 266 266 267 267 268 268 269 269 269 269 268 268
277 278 279 279 279 278 277 277 276 276 275 274 274 273 274 274 274 274 273 273 272 271 271 272 271 269 266 267 268 269 269 269 268 268 268 268 267 266 267 268 268 268 268 267 267 267 267 266 265 265 267 269 270 270 270 270 271 272 272 272 271 270 270 269 269 269 269 269 268 269 269 269 269 269 268 268 267 267 267 267 268 268 269 269 268 267
276 277 278 278 279 278 278 277 277 276 276 275 275 274 274 274 274 274 274 273 273 272 272 272 271 271 270 269 269 270 270 270 269 268 268 268 267 267 268 269 268 268 267 266 265 266 266 266 265 263 263 265 268 268 268 268 268 269 270 271 272 271 270 269 269 268 268 268 268 267 267 267 268 268 268 268 268 268 267 267 267 268 268 268 268 267
277 278 278 278 279 280 280 279 278 278 278 276 276 276 275 275 275 275 275 275 274 274 273 272 272 272 272 272 271 270 270 269 268 268 268 268 267 267 267 269 269 268 268 268 267 265 265 264 265 264 262 262 264 266 267 267 267 267 267 268 269 269 270 270 269 268 268 267 267 266 267 267 267 267 267 267 267 268 268 268 268 268 268 268 268 268
280 280 280 280 281 282 283 283 283 283 283 282 282 280 279 278 278 277 276 276 277 277 276 275 274 273 273 274 274 273 272 271 270 269 269 269 269 268 267 267 268 268 268 268 268 267 266 265 264 264 263 261 261 262 264 265 266 266 267 266 266 266 267 268 269 269 268 267 267 267 267 267 268 268 268 268 268 269 269 269 269 269 268 268 268 268
282 283 283 284 285 286 286 287 288 288 289 290 289 289 288 287 287 286 285 284 284 284 284 283 282 280 280 280 279 277 276 274 274 272 271 270 270 271 270 269 268 268 267 267 267 267 267 266 265 264 263 263 262 261 262 263 263 264 264 264 264 264 265 266 267 268 268 267 267 267 268 268 268 268 268 268 268 269 269 270 270 270 270 270 269 269
284 285 287 290 291 292 292 292 292 292 293 294 294 295 295 295 294 293 293 292 292 292 291 289 289 289 290 290 288 286 284 282 280 277 274 272 271 271 271 270 269 268 268 267 266 266 266 266 266 265 265 264 263 262 261 261 262 261 261 261 261 262 262 263 264 264 265 266 267 267 267 268 268 268 268 268 268 268 269 269 269 270 270 270 270 270
288 288 289 292 295 296 296 296 296 296 296 296 296 297 297 297 296 295 295 296 296 296 295 294 294 294 294 294 292 291 292 291 289 286 283 281 278 276 276 275 274 272 269 268 266 266 266 265 265 265 265 264 264 263 262 261 261 261 260 260 259 259 260 260 260 261 262 263 263 264 265 266 267 267 267 268 268 268 269 269 269 269 270 270 270 270
293 293 293 294 296 296 296 296 297 296 296 295 296 296 296 295 295 296 297 297 297 296 295 296 297 296 296 295 293 293 294 293 292 290 289 287 285 283 282 280 279 277 275 272 269 267 266 265 265 264 264 264 264 263 262 262 261 261 261 260 260 259 259 259 259 259 260 260 261 262 263 264 265 266 266 267 267 268 268 268 269 269 270 269 269 269
296 295 295 296 296 296 296 295 295 294 294 294 294 294 294 294 295 297 297 297 296 296 296 296 297 296 295 295 294 294 293 292 292 291 289 288 286 284 283 281 279 278 277 275 274 272 270 268 266 265 264 263 263 263 263 263 262 261 261 260 260 260 260 260 260 259 259 260 261 262 263 263 264 265 265 266 266 267 267 268 268 269 269 269 269 269
297 297 297 296 295 295 294 293 293 293 292 292 293 293 294 295 296 296 296 296 296 296 296 296 296 295 294 294 293 293 292 291 290 288 287 286 284 282 280 279 278 277 276 276 275 274 273 272 270 268 267 265 264 264 264 264 264 263 262 261 261 261 261 261 261 261 261 261 262 263 264 264 265 266 266 266 266 266 267 267 267 268 268 269 269 269
296 295 294 295 294 293 293 293 293 293 292 292 293 294 295 295 295 294 294 295 295 295 295 295 294 293 293 292 292 291 290 289 287 285 284 283 282 280 278 277 276 275 275 275 275 275 274 274 273 272 271 269 268 266 265 265 264 264 264 263 262 262 261 262 262 262 263 263 263 264 265 266 266 267 268 268 268 268 268 268 268 268 268 268 268 268
293 292 292 293 293 292 293 293 293 292 291 291 292 292 292 292 292 292 292 293 294 294 294 293 292 291 291 290 289 289 287 286 284 283 281 280 279 278 277 275 274 273 273 273 273 273 273 273 273 273 272 271 271 269 268 267 266 265 265 265 264 264 263 263 263 263 263 263 264 264 265 266 266 267 268 268 269 269 269 269 269 269 268 268 268 267
292 292 292 292 291 291 292 292 291 290 290 290 290 290 290 290 291 291 291 292 293 294 293 292 292 291 290 289 288 286 284 283 282 281 280 278 277 275 274 273 272 272 271 271 271 271 271 272 272 272 272 272 271 271 270 269 268 267 266 265 265 265 264 264 264 263 263 263 263 263 264 265 265 266 267 267 268 268 268 268 268 268 268 268 269 268
290 290 289 289 289 289 289 289 289 289 289 289 289 290 290 290 290 290 291 292 293 293 293 293 292 291 291 290 288 286 284 283 281 280 279 278 277 275 274 273 272 271 270 269 269 269 269 269 270 270 271 271 271 270 270 270 269 268 266 265 265 264 264 264 264 264 264 264 264 263 263 264 264 265 266 266 267 267 267 267 267 268 268 268 268 268
287 287 287 287 287 287 287 287 288 288 288 289 289 289 290 290 290 291 292 293 293 293 293 293 293 292 292 291 289 287 286 285 283 281 279 278 277 276 275 274 273 272 271 270 269 269 269 269 269 270 270 270 270 269 269 269 268 267 266 265 264 264 264 264 264 264 264 264 264 264 264 264 264 264 265 265 265 266 266 266 267 267 267 267 267 267
286 286 286 287 287 287 287 287 288 288 288 288 289 289 290 291 292 292 293 294 294 293 293 293 292 291 291 290 289 288 287 286 284 282 281 279 279 278 277 277 275 274 273 272 272 271 270 270 269 269 269 269 269 269 269 268 268 267 266 265 264 263 263 263 263 263 263 263 264 264 264 264 264 264 264 264 264 265 265 266 266 266 266 267 267 267
285 286 286 287 287 287 287 288 288 288 288 289 290 290 291 292 293 293 294 294 294 294 294 292 291 290 290 290 289 288 287 286 285 284 283 282 281 280 280 279 278 277 276 275 274 273 272 271 270 269 269 269 269 269 269 269 268 268 267 266 265 264 263 263 263 263 263 264 264 264 264 264 264 264 264 264 264 264 264 265 265 266 266 266 266 266
285 286 287 287 288 288 288 288 288 289 289 289 290 291 292 292 293 293 293 293 294 294 293 291 290 291 290 289 288 288 287 286 285 284 284 284 283 283 282 281 280 279 278 277 276 275 274 273 272 271 270 270 270 270 269 269 269 269 268 268 267 266 265 264 264 264 264 264 264 264 265 265 265 265 265 265 265 265 265 265 265 265 266 266 266 266
285 286 287 287 288 288 288 289 289 289 289 290 290 291 291 292 293 293 293 293 293 292 290 290 290 290 289 288 289 288 287 286 286 286 285 285 285 284 283 283 282 282 281 279 278 277 276 275 274 273 272 271 270 270 270 270 269 269 269 268 267 267 266 265 265 265 265 264 264 264 264 265 265 265 265 265 266 266 266 266 265 265 265 265 265 265
286 286 287 288 288 288 289 289 289 289 289 289 290 291 291 292 293 293 293 293 292 290 289 289 289 288 288 289 289 288 288 287 287 286 286 285 285 285 285 284 283 282 281 280 279 278 277 276 275 275 274 273 272 271 271 270 270 269 268 267 267 266 266 265 265 265 265 264 264 264 264 264 264 264 265 265 265 265 266 266 266 266 266 265 265 265
286 287 287 287 288 288 289 289 289 289 289 289 290 291 291 292 293 293 292 291 290 289 289 289 288 288 289 289 288 287 287 287 287 287 287 287 286 285 284 284 283 282 281 280 279 279 278 278 277 276 276 275 274 273 271 271 270 269 268 267 267 266 265 265 264 264 264 264 264 264 264 264 264 264 264 265 265 265 265 265 266 266 266 266 266 265
286 287 287 287 288 288 288 289 289 289 289 289 290 290 292 293 293 292 290 289 289 288 289 289 289 288 288 287 287 286 286 286 287 287 287 287 286 285 284 283 283 282 281 281 281 281 280 280 279 278 277 276 275 274 272 271 270 269 268 267 267 266 266 265 265 264 264 264 264 264 264 264 264 264 264 264 264 265 265 265 265 266 266 266 266 266
286 287 287 287 287 288 288 289 289 289 289 289 290 291 293 293 291 289 288 288 288 288 289 289 288 288 288 287 286 286 286 286 286 286 286 286 286 286 285 284 284 283 283 283 282 282 282 281 280 279 278 276 275 274 273 272 271 270 269 269 268 267 267 266 266 266 265 265 265 265 265 265 265 264 264 264 264 264 264 264 264 265 265 266 266 266
286 286 287 287 287 288 288 288 288 288 288 289 291 292 292 290 288 288 288 288 288 289 288 288 287 288 288 287 286 287 287 287 286 286 286 286 286 286 286 285 285 285 284 284 283 282 282 281 280 279 278 277 276 275 274 273 272 271 271 271 270 270 270 269 269 268 268 268 267 267 266 266 266 265 265 264 264 264 263 263 264 264 264 265 265 266
286 286 287 287 287 288 288 288 288 288 288 290 292 291 289 288 288 288 288 288 288 288 288 288 288 288 287 287 288 288 288 287 287 287 287 287 287 286 286 286 286 286 285 284 283 282 281 281 280 280 279 279 278 277 276 275 274 274 273 272 271 271 271 271 270 270 270 270 269 269 269 268 267 267 266 266 265 265 264 264 264 264 264 264 265 265
286 286 286 287 287 288 288 288 287 287 288 290 291 289 289 289 289 288 287 287 288 288 288 288 288 287 287 288 288 288 287 288 288 289 289 288 287 286 286 286 286 285 285 284 283 283 282 282 281 281 280 280 279 279 278 278 277 276 275 274 273 272 271 271 271 270 270 270 270 270 270 269 269 268 267 267 266 266 266 265 265 264 264 264 264 264
286 286 286 287 287 287 287 287 286 287 289 289 288 288 288 288 287 287 287 287 287 287 287 287 287 287 288 288 288 287 288 288 289 289 289 288 287 286 286 286 285 285 284 283 283 283 283 282 281 280 280 279 279 279 279 279 278 278 277 276 276 275 274 273 272 271 271 270 270 270 270 269 269 269 269 268 267 267 267 266 266 265 265 264 264 264
286 286 286 287 287 287 287 286 286 287 288 287 287 288 287 286 286 287 287 286 286 287 287 287 287 286 287 287 288 288 289 289 290 290 289 287 287 286 286 286 285 285 284 284 284 283 283 282 280 280 279 279 279 279 279 279 278 278 278 278 277 277 276 275 274 273 273 272 271 271 270 270 270 269 269 269 269 268 267 267 266 266 265 264 264 263
286 286 286 286 286 286 286 286 287 287 287 287 287 287 286 286 286 286 286 286 286 287 287 286 286 286 287 288 288 289 289 289 289 289 288 287 287 287 287 286 286 286 285 285 284 284 283 281 281 280 280 280 279 279 279 279 279 278 278 278 277 277 276 276 276 275 275 274 273 273 272 272 271 271 270 270 270 269 268 268 267 266 265 264 264 263
285 285 286 286 286 286 286 287 286 287 287 288 288 287 287 287 287 286 286 286 286 287 286 285 286 288 288 288 289 289 288 288 288 288 287 286 287 287 287 287 286 286 285 285 284 283 283 282 282 282 281 281 281 281 280 280 279 279 278 278 278 278 278 277 277 276 276 275 275 275 274 273 273 272 271 270 270 269 269 268 267 266 265 265 264 263
285 285 285 285 285 286 286 286 287 287 288 289 288 288 288 288 287 286 285 286 286 286 285 286 287 287 287 288 288 288 288 288 287 287 286 286 286 286 286 286 285 285 285 285 284 284 284 284 283 283 283 283 282 282 281 281 280 279 279 279 278 278 278 277 277 277 277 277 276 276 276 275 274 273 272 271 270 269 268 267 267 267 266 266 265 264
284 284 284 284 285 285 286 286 287 287 288 289 289 289 288 287 287 286 286 287 287 286 286 287 287 287 287 287 287 287 287 287 287 286 286 286 286 285 285 285 285 285 285 284 284 284 284 284 284 284 284 284 283 283 282 282 281 281 280 280 279 278 277 277 277 277 277 277 276 276 276 276 275 274 274 272 271 270 269 269 268 267 266 266 265 265
283 283 283 283 284 285 286 286 286 287 288 289 289 288 287 287 287 286 287 288 288 288 289 288 287 287 287 287 287 288 287 287 286 286 286 285 285 285 285 285 285 285 284 285 285 285 284 284 284 284 284 283 283 283 282 282 282 281 281 280 279 278 278 278 278 278 277 277 276 276 275 275 274 274 274 273 273 272 272 271 269 268 267 266 266 265
282 282 282 284 284 285 285 285 286 287 288 288 286 286 286 286 286 287 288 289 289 290 290 289 288 288 288 288 288 288 287 287 287 286 286 285 285 285 285 285 285 285 285 285 285 285 285 285 285 285 285 284 283 283 282 281 281 280 279 279 279 279 279 278 278 278 277 277 276 276 275 274 274 274 274 274 273 273 272 271 271 270 269 268 268 267
282 282 283 283 283 284 284 285 287 288 287 286 286 285 285 285 286 287 288 289 289 290 290 290 290 289 289 288 288 288 288 288 287 286 285 285 285 285 285 285 285 285 285 285 285 285 286 286 286 286 285 285 284 283 282 282 281 280 279 279 279 279 278 278 278 277 277 276 276 276 275 275 275 275 274 273 273 272 272 272 272 271 271 270 269 268
282 282 282 283 283 284 285 286 287 287 287 286 285 285 285 285 287 287 288 288 289 290 290 290 289 289 288 287 287 287 287 286 285 285 285 285 285 285 285 285 285 285 285 285 285 285 285 285 285 285 285 284 284 283 283 282 281 280 280 280 280 279 279 278 278 277 277 277 276 276 276 276 275 274 274 273 273 272 272 272 271 271 271 270 270 269
282 282 283 283 284 285 286 287 287 286 285 285 285 284 285 285 286 287 287 288 289 290 289 289 288 288 287 287 286 286 285 285 285 286 286 287 287 286 286 286 285 285 285 285 285 284 284 284 284 284 284 283 283 282 282 281 281 280 280 280 280 279 279 278 278 278 277 277 277 276 276 275 275 274 274 274 273 273 272 272 272 271 271 270 270 269
282 282 283 284 285 286 286 286 286 285 285 286 286 286 286 286 287 287 288 289 290 289 288 287 287 287 286 286 286 286 286 286 287 287 287 287 287 287 287 287 286 286 285 285 285 285 284 284 284 283 283 282 282 282 281 281 281 280 280 280 280 280 279 279 278 278 277 277 276 276 275 275 275 275 275 275 274 274 274 273 273 272 271 271 270 270
281 282 283 285 285 284 284 285 285 285 285 286 286 286 287 288 289 290 291 291 291 290 288 288 287 287 287 287 286 286 286 287 287 287 287 287 287 287 287 287 286 286 285 285 285 285 284 284 284 283 283 283 282 282 282 282 281 281 281 281 281 280 280 280 279 279 278 277 276 276 276 276 275 275 275 275 275 275 274 274 273 272 272 271 271 270
282 283 284 284 283 283 284 285 284 284 284 284 285 286 287 289 291 292 292 292 291 289 288 288 289 288 288 288 288 288 287 287 287 287 287 287 287 286 286 285 285 285 285 285 285 284 284 284 284 284 283 283 283 283 283 283 282 282 282 282 282 281 281 281 280 280 279 278 278 278 277 277 277 277 277 277 276 276 275 274 274 273 272 272 271 271
284 284 284 284 283 284 284 284 283 283 283 285 286 287 289 291 292 292 292 290 289 288 289 289 289 288 288 288 288 287 287 287 287 286 286 286 286 286 285 285 285 284 284 284 284 284 284 283 283 283 283 283 283 283 283 283 282 283 283 283 282 282 282 281 281 281 280 280 280 279 279 279 279 278 278 278 278 277 276 276 275 274 274 273 272 271
284 284 285 285 284 284 283 283 283 284 284 286 288 289 290 291 291 291 290 289 289 289 289 289 288 288 288 288 288 287 287 287 286 286 286 286 286 286 285 285 285 285 285 284 284 283 283 282 282 282 282 282 282 282 282 282 282 283 283 282 282 282 281 281 281 280 280 280 280 280 280 280 279 279 279 278 278 278 278 277 276 276 275 275 274 273
285 286 286 285 285 284 284 284 284 285 286 289 290 290 290 290 289 289 289 289 289 290 289 289 288 288 288 288 288 287 287 287 287 287 287 287 287 286 286 286 285 285 285 284 284 283 282 282 281 281 281 281 281 281 281 281 282 282 282 282 281 281 280 280 280 280 280 281 281 281 281 280 280 280 279 279 279 279 279 279 279 278 276 275 275 274